User: anonymous   Login
Location: Wawayanda State Park
(41.1833°N, 74.4333°W)
Time: 09:44:11
(UTC-05:00)
Language:

RESURS DK-1 - Orbit

View from above orbital plane
View from above orbital plane
View from above satellite
View from above satellite

Ground track
Ground track

The orbit data is extracted from the following two-line orbital elements,

1 29228U 06021A   17023.20497688  .00000116  00000-0  16237-4 0  9990
2 29228  69.9361 106.9232 0006691 230.0192 130.0381 15.02079270586335
Epoch (UTC): 23 January 2017 04:55:10
Eccentricity: 0.0006691
inclination: 69.9361°
perigee height: 556 km
apogee height: 565 km
right ascension of ascending node: 106.9232°
argument of perigee: 230.0192°
revolutions per day: 15.02079270
mean anomaly at epoch: 130.0381°
orbit number at epoch: 58633

The dashed part of the orbit path shows where the satellite is in the earth's shadow,  

DLR